Simultaneous Nadir Overpasses (SNOs) Predictions

Prediction of SNOs between FY3D and TERRA Satellite Orbit:

Table of predicted SNOs for the next 14.0 days since TLE Epoch: 6/8/2024
Index Date (FY3D) Time (FY3D) Lat,Lon (FY3D) SZA (FY3D ) Date (TERRA) Time (TERRA) Lat,Lon (TERRA) SZA (TERRA ) Distance(km) Time Diff (sec)
1 06/09/2024 03:27:52 75.69, 128.09 52.65 06/09/2024 03:28:47 75.67, 128.08 52.62 2.23 55
2 06/09/2024 04:18:36 -75.64, -64.43 127.41 06/09/2024 04:18:11 -75.61, -64.44 127.45 3.68 25
3 06/11/2024 14:40:50 75.88, -40.71 52.66 06/11/2024 14:42:02 75.76, -40.02 52.54 22.89 72
4 06/11/2024 15:31:30 -75.64, 127.40 127.59 06/11/2024 15:31:27 -75.65, 127.32 127.58 2.51 3
5 06/11/2024 16:22:03 75.05, -63.46 51.83 06/11/2024 16:20:58 75.06, -66.60 51.83 89.98 65
6 06/14/2024 02:44:25 -75.69, -40.96 127.67 06/14/2024 02:44:42 -75.70, -40.88 127.66 2.31 17
7 06/14/2024 03:35:09 75.63, 126.58 52.26 06/14/2024 03:34:03 75.62, 126.54 52.25 1.41 66
8 06/16/2024 13:57:19 -75.71, 150.81 127.75 06/16/2024 13:57:57 -75.72, 150.81 127.74 0.52 38
9 06/16/2024 14:48:03 75.65, -41.67 52.19 06/16/2024 14:47:17 75.68, -41.64 52.22 3.42 46
10 06/19/2024 01:10:13 -75.74, -17.46 127.77 06/19/2024 01:11:11 -75.74, -17.47 127.77 0.29 58
11 06/19/2024 02:00:56 75.68, 150.06 52.17 06/19/2024 02:00:30 75.70, 150.08 52.19 2.34 26
12 06/21/2024 12:23:10 -75.96, 173.61 127.55 06/21/2024 12:24:21 -75.87, 174.57 127.65 27.69 71
13 06/21/2024 13:13:50 75.72, -18.25 52.20 06/21/2024 13:13:43 75.73, -18.17 52.21 2.45 7



Historial Predications of SNOs between FY3D and TERRA
